Weather History for Hebbronville, TX

Change the Weather History Date:

Monday, February 24, 2014

  Actual Average (KLRD) Record (KLRD)
Temperature  
Mean Temperature 70 °F 63 °F  
Max Temperature 75 °F 74 °F 98 °F (1917)
Min Temperature 64 °F 52 °F 31 °F (1968)
Degree Days  
Heating Degree Days 0 4  
Month to date heating degree days 148  
Since 1 July heating degree days 827  
Cooling Degree Days 4 3  
Month to date cooling degree days 46  
Year to date cooling degree days 74  
Growing Degree Days 20 (Base 50)    
Moisture  
Dew Point 67 °F    
Average Humidity 92    
Maximum Humidity 98    
Minimum Humidity 74    
Precipitation  
Precipitation 0.02 in 0.03 in 2.25 in (2004)
Month to date precipitation 0.78  
Year to date precipitation 1.68  
Sea Level Pressure  
Sea Level Pressure 30.00 in    
Wind  
Wind Speed 4 mph (East)    
Max Wind Speed 17 mph    
Max Gust Speed 23 mph    
Visibility 4 miles    
Events Fog , Rain    
T = Trace of Precipitation, MM = Missing Value Source: NWS Daily Summary

Daily Weather History Graph

Daily Weather History Graph

Search for Another Location

Airport:

Trip Planner

Search our weather history database for the weather conditions in past years. The results will help you decide how hot, cold, wet, or windy it might be!

Date:

Astronomy

Feb. 24, 2014 Rise Set
Actual Time 7:03 AM CST 6:32 PM CST
Civil Twilight 6:40 AM CST 6:56 PM CST
Nautical Twilight 6:13 AM CST 7:23 PM CST
Astronomical Twilight 5:46 AM CST 7:50 PM CST
Moon 2:48 AM CST (2/24) 1:51 PM CST (2/24)
Length of Visible Light 12h 15m
Length of Day
11h 28m
Waning Crescent, 28% of the Moon is Illuminated
Feb 24
Waning Crescent
Mar 1
New
Mar 8
First Quarter
Mar 16
Full
Mar 23
Last Quarter

Hourly Weather History & Observations

Time (CST) Temp. Dew Point Humidity Pressure Visibility Wind Dir Wind Speed Gust Speed Precip Events Conditions
12:15 AM 66.9 °F 64.9 °F 93% 29.99 in 4.0 mi Calm Calm - N/A   Clear
12:35 AM 66.4 °F 64.6 °F 94% 29.98 in 4.0 mi Calm Calm - N/A   Clear
12:55 AM 65.8 °F 64.4 °F 95% 29.98 in 1.0 mi Calm Calm - N/A   Mist
1:15 AM 65.1 °F 64.0 °F 96% 29.98 in 0.2 mi Calm Calm - N/A Fog Fog
1:35 AM 64.8 °F 63.7 °F 96% 29.98 in 0.2 mi Calm Calm - N/A Fog Fog
1:55 AM 65.1 °F 64.2 °F 97% 29.98 in 0.2 mi Calm Calm - N/A Fog Fog
2:15 AM 65.3 °F 64.4 °F 97% 29.98 in 0.2 mi Calm Calm - N/A Fog Fog
2:35 AM 65.5 °F 64.6 °F 97% 29.98 in 0.2 mi Calm Calm - N/A Rain Heavy Rain
2:55 AM 65.7 °F 64.9 °F 98% 29.96 in 0.2 mi Calm Calm - N/A Rain Light Rain
3:15 AM 65.7 °F 64.9 °F 98% 29.97 in 0.2 mi Calm Calm - N/A Rain Light Rain
3:35 AM 65.7 °F 64.9 °F 98% 29.97 in 0.2 mi Calm Calm - N/A Rain Light Rain
3:55 AM 65.5 °F 64.8 °F 98% 29.96 in 0.2 mi Calm Calm - N/A Rain Light Rain
4:15 AM 65.7 °F 65.1 °F 98% 29.97 in 0.2 mi Calm Calm - N/A Rain Heavy Rain
4:35 AM 66.2 °F 65.3 °F 97% 29.98 in 0.2 mi Calm Calm - N/A Rain Heavy Rain
4:55 AM 66.2 °F 65.5 °F 98% 29.98 in 0.2 mi Calm Calm - N/A Rain Heavy Rain
5:15 AM 66.2 °F 65.5 °F 98% 29.99 in 0.2 mi ENE 3.5 mph - N/A Rain Rain
5:35 AM 66.4 °F 65.7 °F 98% 30.00 in 0.2 mi Calm Calm - N/A Rain Rain
5:55 AM 66.6 °F 65.8 °F 98% 30.00 in 0.2 mi Calm Calm - N/A Rain Heavy Rain
6:15 AM 66.6 °F 65.8 °F 98% 30.01 in 0.2 mi Calm Calm - N/A Rain Heavy Rain
6:35 AM 66.6 °F 65.8 °F 98% 30.02 in 0.2 mi Calm Calm - N/A Rain Heavy Rain
6:55 AM 66.6 °F 66.0 °F 98% 30.03 in 0.2 mi East 3.5 mph - N/A Rain Heavy Rain
7:15 AM 66.9 °F 66.2 °F 98% 30.03 in 0.2 mi Calm Calm - N/A Rain Rain
7:35 AM 67.1 °F 66.2 °F 97% 30.02 in 0.2 mi ENE 5.8 mph - N/A Rain Light Rain
7:55 AM 67.1 °F 66.4 °F 98% 30.02 in 0.2 mi ENE 6.9 mph - N/A Rain Light Rain
8:15 AM 67.3 °F 66.6 °F 98% 30.02 in 0.2 mi ENE 6.9 mph - N/A Rain Heavy Rain
8:35 AM 67.3 °F 66.6 °F 98% 30.03 in 0.2 mi ENE 9.2 mph - N/A Rain Rain
8:55 AM 67.5 °F 66.9 °F 98% 30.04 in 1.5 mi ENE 9.2 mph - N/A Rain Rain
9:15 AM 67.6 °F 67.1 °F 98% 30.06 in 2.0 mi East 8.1 mph - N/A Rain Rain
9:30 AM 67.6 °F 67.1 °F 98% 30.06 in 4.0 mi ENE 8.1 mph - N/A Rain Light Rain
9:55 AM 67.8 °F 67.3 °F 98% 30.07 in 4.0 mi ENE 5.8 mph - N/A Rain Light Rain
10:15 AM 68.7 °F 68.0 °F 98% 30.07 in 5.0 mi East 6.9 mph - N/A   Mostly Cloudy
10:35 AM 69.3 °F 68.5 °F 98% 30.07 in 5.0 mi East 10.4 mph - N/A Rain Rain
10:55 AM 69.6 °F 69.1 °F 98% 30.06 in 5.0 mi East 13.8 mph - N/A   Mostly Cloudy
11:15 AM 73.2 °F 68.9 °F 86% 30.06 in 5.0 mi East 12.7 mph - N/A   Haze
11:35 AM 75.6 °F 67.3 °F 75% 30.04 in 7.0 mi East 15.0 mph 23.0 mph N/A   Scattered Clouds
11:55 AM 75.6 °F 66.9 °F 74% 30.05 in 7.0 mi East 13.8 mph - N/A   Mostly Cloudy
12:15 PM 74.7 °F 66.6 °F 76% 30.04 in 7.0 mi SE 17.3 mph 20.7 mph N/A   Overcast
12:35 PM 75.0 °F 66.9 °F 76% 30.04 in 7.0 mi East 11.5 mph - N/A Rain Light Rain
12:55 PM 75.0 °F 67.1 °F 76% 30.04 in 4.0 mi East 8.1 mph - N/A   Haze
1:15 PM 74.3 °F 66.7 °F 77% 30.04 in 5.0 mi ESE 8.1 mph - N/A   Haze
1:35 PM 73.4 °F 67.1 °F 81% 30.03 in 5.0 mi ESE 9.2 mph - N/A Rain Rain
1:55 PM 72.5 °F 67.5 °F 84% 29.98 in 4.0 mi ESE 16.1 mph - 0.01 in Rain Light Rain
2:10 PM 71.6 °F 68.2 °F 89% 29.99 in 4.0 mi ESE 10.4 mph - N/A Rain Rain
2:35 PM 71.6 °F 68.7 °F 91% 29.99 in 4.0 mi ESE 8.1 mph - 0.01 in   Overcast
2:55 PM 71.6 °F 68.5 °F 90% 29.98 in 4.0 mi ESE 8.1 mph - 0.01 in   Overcast
3:15 PM 71.6 °F 68.4 °F 89% 29.98 in 4.0 mi East 9.2 mph - N/A   Overcast
3:35 PM 72.1 °F 68.5 °F 88% 29.96 in 5.0 mi East 9.2 mph - N/A   Overcast
3:55 PM 72.1 °F 68.5 °F 88% 29.96 in 5.0 mi East 8.1 mph - N/A   Overcast
4:15 PM 72.1 °F 68.7 °F 89% 29.95 in 5.0 mi East 9.2 mph - N/A   Overcast
4:35 PM 72.7 °F 68.9 °F 88% 29.95 in 5.0 mi ESE 8.1 mph - N/A   Overcast
4:55 PM 73.4 °F 68.7 °F 85% 29.94 in 7.0 mi ESE 9.2 mph - N/A   Mostly Cloudy
5:15 PM 73.6 °F 68.9 °F 85% 29.95 in 5.0 mi East 8.1 mph - N/A   Haze
5:35 PM 73.8 °F 68.7 °F 84% 29.96 in 7.0 mi ENE 4.6 mph - N/A   Overcast
5:55 PM 73.2 °F 68.5 °F 85% 29.97 in 7.0 mi NE 4.6 mph - N/A   Overcast
6:15 PM 72.9 °F 68.4 °F 86% 29.96 in 7.0 mi ENE 6.9 mph - N/A   Mostly Cloudy
6:35 PM 72.0 °F 68.2 °F 88% 29.96 in 7.0 mi East 5.8 mph - N/A   Overcast
6:50 PM 71.6 °F 68.0 °F 88% 29.98 in 7.0 mi ENE 5.8 mph - N/A   Mostly Cloudy
7:15 PM 71.1 °F 68.0 °F 90% 29.99 in 7.0 mi ENE 5.8 mph - N/A   Overcast
7:35 PM 70.9 °F 68.0 °F 91% 29.99 in 7.0 mi ENE 5.8 mph - N/A   Mostly Cloudy
7:55 PM 70.7 °F 67.8 °F 91% 30.00 in 7.0 mi ENE 4.6 mph - N/A   Overcast
8:15 PM 70.3 °F 67.6 °F 91% 30.00 in 7.0 mi ENE 5.8 mph - N/A   Overcast
8:35 PM 70.2 °F 67.6 °F 92% 30.01 in 7.0 mi NE 5.8 mph - N/A   Overcast
8:55 PM 70.2 °F 67.5 °F 91% 30.02 in 7.0 mi ENE 6.9 mph - N/A   Overcast
9:15 PM 70.0 °F 67.3 °F 91% 30.01 in 7.0 mi East 6.9 mph - N/A   Overcast
9:35 PM 69.8 °F 67.1 °F 91% 30.02 in 5.0 mi East 8.1 mph - N/A   Overcast
9:55 PM 69.6 °F 67.1 °F 92% 30.01 in 5.0 mi East 8.1 mph - N/A   Overcast
10:15 PM 69.3 °F 66.9 °F 92% 30.01 in 5.0 mi East 9.2 mph - N/A   Overcast
10:35 PM 68.9 °F 66.6 °F 92% 30.01 in 5.0 mi East 8.1 mph - N/A   Mostly Cloudy
10:55 PM 68.9 °F 66.6 °F 92% 30.01 in 5.0 mi East 9.2 mph - N/A   Overcast
11:15 PM 68.5 °F 66.6 °F 93% 30.00 in 4.0 mi East 9.2 mph - N/A   Overcast
11:35 PM 68.5 °F 66.7 °F 94% 30.00 in 5.0 mi East 9.2 mph - N/A   Overcast
11:55 PM 68.4 °F 66.6 °F 94% 30.00 in 5.0 mi East 9.2 mph - N/A   Overcast